Погода в Вилье де Лейве

Колумбия     5°32′03″N   73°21′41″W
темп.,
°C
ветер,
м/с
пор.,
м/с
влажн.,
%
обл.,
%
осадки,
мм/ч
давл.,
гПа
погр.,
м
19 апреля, пн
пн1901:00+9юв119672 0.2 101954
04:00+8юв1195100 0.1 101915
07:00+9юв1190100 0.1 1020165
10:00+14ююв2261100 0.1 10191261
13:00+17ю234677 0.1 10151890
16:00+15ю2265100 0.1 10131085
19:00+10ююв2398100 0.6 1018156
22:00+10ю129599 0.1 1020161
20 апреля, вт
вт2001:00+9ю119164 0.2 101878
04:00+9ююв119496 0.0 101869
07:00+9ю2297100 0.6 1020259
10:00+11ю2288100 0.2 1021506
13:00+12ююз2380100 0.3 1017663
16:00+12ю1284100 0.3 1016516
19:00+10ююв1298100 1.3 1018113
22:00+10ююв119898 0.6 102083
21 апреля, ср
ср2101:00+9всв0098100 0.6 101815
04:00+9юв009772 0.0 101817
07:00+10ю1296100 0.0 1019190
10:00+11ю228777 0.3 1020537
13:00+16ю3260100 0.7 10151420
16:00+14ю227293 0.6 1014867
19:00+10ю129781 1.2 1018101
22:00+10ююв1197100 1.3 1019117
22 апреля, чт
чт2201:00+9ю1298100 4.9 1017136
04:00+9ю1298100 6.1 1017151
07:00+9ю129690 8.8 1019202
10:00+12ю238556 0.5 1019692
13:00+13ю227980 2.0 1016848
16:00+12ю2288100 1.0 1015439
19:00+10ююв129851 1.3 101867
22:00+9юв119763 0.0 102027
23 апреля, пт
пт2301:00+9ююв119595 0.1 101850
04:00+9ююв129796 0.1 1018109
07:00+9ююв129493 0.1 1020161
10:00+14ююв227572 0.2 1018890
13:00+15ю226798 1.1 10151137
16:00+13ююв238486 0.6 1014482
19:00+9ююв119792 0.8 101747
22:00+10ююв1194100 0.0 101847